Theta_e
327 325 328 332 333 336 337 338 339 339 339 337 335 334 335 332 330 327 324 323 321 320
327 325 328 332 335 337 336 338 339 339 338 336 335 334 332 331 332 327 324 322 321 318
328 328 329 333 335 336 336 338 338 337 336 335 334 334 330 327 326 325 323 322 321 319
328 329 333 335 337 337 337 338 338 337 335 334 334 332 328 326 326 325 322 322 322 320
329 333 334 336 337 336 337 338 337 335 335 334 334 331 328 326 327 324 322 323 322 321
332 334 335 336 336 337 337 337 337 335 334 333 332 329 327 327 326 324 323 323 322 321
334 337 337 336 336 337 337 336 335 335 334 333 331 330 327 326 325 324 324 324 323 323
335 334 334 335 336 336 336 335 335 333 332 331 329 329 327 328 324 323 323 323 324 324
332 333 333 333 335 334 332 333 333 331 329 326 328 310 313 322 324 322 322 321 321 319
332 331 331 332 331 330 329 329 327 325 325 323 322 305 307 313 325 322 321 320 318 318
331 330 330 329 328 326 325 325 323 322 321 319 314 302 303 309 322 320 320 318 318 318
330 329 328 326 325 324 323 322 320 319 317 316 312 301 301 314 321 320 319 319 318 319
330 328 325 323 322 320 323 320 320 316 316 311 313 299 300 313 321 318 318 320 318 308
328 325 323 322 322 320 321 320 318 316 314 314 312 306 300 304 320 320 318 318 317 311
Wind_Speed
14 8 7 8 5 6 7 7 9 8 8 8 7 6 6 4 5 6 5 6 4 3
11 9 10 10 7 6 6 6 9 9 8 8 8 8 8 5 6 6 5 5 5 3
14 13 9 8 9 9 7 9 10 8 8 9 8 8 8 5 5 6 4 4 6 3
9 9 9 9 9 10 10 10 12 11 10 10 9 8 7 6 6 6 5 4 5 6
9 10 10 9 10 11 11 11 12 10 11 11 10 9 8 7 6 7 6 6 6 5
10 11 11 11 11 11 11 11 11 12 12 11 11 9 7 7 7 7 6 6 6 5
11 12 12 11 12 12 12 12 12 12 11 11 10 9 8 7 7 6 6 6 5 5
10 10 11 11 12 11 12 11 12 12 9 9 9 7 8 8 6 6 5 5 5 5
10 11 11 11 13 13 12 12 12 11 10 8 5 11 12 9 6 6 6 6 4 3
11 11 11 13 14 12 12 11 9 8 9 7 6 11 12 12 7 7 6 6 5 4
13 13 13 14 12 11 9 12 9 8 8 8 4 9 11 10 7 6 6 6 6 5
13 14 13 13 12 9 10 8 7 7 8 8 5 7 10 9 6 6 6 5 5 5
11 14 13 12 11 5 9 7 7 6 6 8 8 5 9 7 5 6 4 4 4 5
11 11 12 10 9 7 8 9 7 8 5 6 6 5 7 10 5 6 5 4 3 3
Wind_Direction
200 188 181 179 170 178 179 174 170 174 168 151 145 150 149 151 165 150 162 167 164 179
188 167 184 183 170 170 165 162 164 165 164 145 146 160 153 157 157 156 161 173 170 160
194 188 166 154 167 167 160 158 157 156 153 136 151 150 145 142 142 147 151 152 163 164
165 161 156 169 173 173 161 165 161 158 148 147 148 145 138 145 149 150 154 156 169 186
154 156 161 170 174 161 167 166 155 151 149 151 152 150 146 154 159 158 167 174 177 185
157 161 174 170 158 159 159 152 147 147 153 154 152 153 154 158 162 169 175 176 175 187
164 169 166 159 153 160 152 148 151 153 153 151 154 159 156 156 162 170 182 172 182 192
157 144 142 144 148 143 148 145 145 143 143 149 150 161 159 157 166 173 174 174 190 204
135 139 144 144 147 142 139 147 146 144 147 142 153 155 146 147 155 157 159 161 164 161
139 139 149 142 134 139 141 130 137 138 131 139 135 155 150 143 146 148 150 155 158 172
145 146 146 127 131 122 133 138 137 132 132 128 126 141 149 144 134 139 145 160 168 159
152 140 131 130 129 134 124 121 128 132 134 127 123 121 141 127 131 135 150 155 158 150
146 142 135 131 130 127 127 119 126 121 122 127 128 127 152 132 130 134 141 132 113 136
152 134 128 122 121 119 118 122 114 111 103 107 127 136 145 149 142 150 151 140 146 132